Location: Gloria Glens Park
(41.0584°N, 81.8979°W)
Time: 04:56:01
(UTC+00:00)

Daily predictions for brighter satellites

Satellite Brightness Start Highest point End
(mag) Time Altitude Azimuth Time Altitude Azimuth Time Altitude Azimuth
OAO 2 Rocket 4.3 00:02:03 10° SW 00:06:25 32° SSE 00:07:50 27° SE
SeaSat 1 3.0 00:11:24 35° ENE 00:11:43 36° NE 00:16:12 10° N
Cosmos 2219 3.1 00:06:38 10° NNW 00:12:26 81° ENE 00:17:55 11° SSE
USA 305 4.4 00:10:05 10° NNW 00:13:29 22° NNE 00:13:35 22° NNE
YAOGAN 1 2.5 00:11:08 10° SSE 00:15:27 88° WSW 00:19:49 10° NNW
Aureole 3 4.5 00:13:18 10° SSW 00:16:23 34° W 00:19:12 10° NNW
USA 306 4.4 00:16:22 10° NNW 00:19:37 23° NNE 00:19:37 23° NNE
S3M 3.8 00:15:09 10° S 00:21:13 77° E 00:27:23 10° N
Cosmos 2082 4.0 00:16:54 10° N 00:22:21 42° ENE 00:22:40 42° ENE
Cosmos 1892 2.7 00:19:57 10° N 00:23:49 79° W 00:26:14 22° S
SL-4 R/B 3.9 00:21:50 10° NW 00:24:00 17° N 00:24:00 17° N
CZ-2C R/B 3.4 00:19:06 10° S 00:24:56 81° WSW 00:30:40 10° NNW
Cosmos 1315 Rocket 3.8 00:22:11 10° S 00:24:27 33° S 00:24:27 33° S
Cosmos 968 Rocket 3.3 00:21:11 10° NNW 00:26:25 75° ENE 00:28:17 40° SE
Cosmos 1346 Rocket 3.0 00:25:09 10° N 00:28:23 56° N 00:28:23 56° N
Cosmos 2369 3.6 00:25:42 10° S 00:31:18 60° ESE 00:32:23 51° ENE
CRYOSAT 2 4.2 00:27:44 10° N 00:32:38 90° SSW 00:37:29 10° S
Atlas Centaur 2 3.8 00:25:22 10° SW 00:32:53 35° S 00:35:21 30° SE
Meteor 2-10 Rocket 3.6 00:29:03 10° SSW 00:34:27 78° W 00:39:39 10° N
Okean-O 4.0 00:32:36 10° SSW 00:36:45 39° W 00:40:56 10° NNW
ARGOS 3.0 00:36:35 54° SE 00:37:44 71° ENE 00:43:09 10° N
Cosmos 1486 Rocket 4.0 00:33:24 10° NNW 00:38:46 82° WSW 00:41:02 35° S
NOSS 3-3 (A) 3.7 00:33:58 10° SSW 00:39:40 83° ESE 00:41:50 43° NE
NOSS 3-3 (C) 3.7 00:34:03 10° SSW 00:39:47 82° ESE 00:41:58 43° NE
Meteor 2-1 Rocket 4.2 00:37:09 10° SSW 00:42:40 77° W 00:48:12 10° N
USA 215 4.0 00:42:31 34° NE 00:43:24 35° NNE 00:49:12 10° NW
MOS 1 Rocket 3.8 00:42:58 10° N 00:47:33 59° WNW 00:52:25 10° SSW
Cosmos 1503 Rocket 4.2 00:43:01 10° NNW 00:47:17 56° NNE 00:47:17 56° NNE
Cosmos 2227 Rocket 2.4 00:43:10 10° NNW 00:48:47 68° WSW 00:51:12 34° S
CSL-04 Rocket 4.1 00:47:20 10° S 00:52:50 64° WSW 00:58:20 10° NNW
ATLAS 2AS CENTAUR R/B 3.9 00:48:19 10° NNW 00:54:13 28° NNE 00:54:13 28° NNE
Cosmos 2263 Rocket 4.1 00:53:08 10° N 00:54:45 16° NNE 00:54:45 16° NNE
GEOS 3 Rocket 3.8 00:57:17 64° SSW 00:57:53 71° SW 01:03:15 10° NW
Lacrosse 5 4.2 01:01:43 10° NNW 01:03:38 14° N 01:03:38 14° N
Cosmos 1697 Rocket 3.0 00:59:00 10° SW 01:04:32 63° WNW 01:06:00 46° N
H-2A R/B 3.1 01:03:27 10° S 01:08:35 46° W 01:13:49 10° NNW
Cosmos 1980 Rocket 4.1 01:20:42 10° SSW 01:22:19 20° SSW 01:22:19 20° SSW
CZ-4C R/B 4.3 01:21:33 10° NNW 01:25:16 23° NNE 01:25:16 23° NNE
Cosmos 2297 Rocket 4.1 01:24:04 10° NW 01:28:36 25° WSW 01:32:04 14° SSW
Milstar 3 4.1 01:30:22 10° WSW 01:34:44 27° SSW 01:34:44 27° SSW
NOSS 3-2 (C) 4.3 08:44:11 43° ENE 08:44:11 43° ENE 08:48:32 10° NE
Lacrosse 4 Rocket 4.1 08:57:05 16° NE 08:57:05 16° NE 08:58:05 10° NE
CENTAUR R/B 2.8 08:57:17 61° NE 08:57:17 61° NE 09:03:00 10° NE
CZ-2C R/B 3.4 09:01:11 10° NNE 09:05:24 44° ENE 09:05:24 44° ENE
Cosmos 1833 Rocket 4.0 09:08:55 20° SSE 09:12:10 37° ESE 09:17:19 10° NE
PAYLOAD A 4.5 09:08:12 10° NNE 09:12:41 59° ENE 09:12:41 59° ENE
Cosmos 1269 Rocket 4.3 09:17:07 65° ENE 09:17:07 65° ENE 09:21:55 10° NNE
Lacrosse 5 rocket 3.2 09:22:56 25° ENE 09:22:56 25° ENE 09:24:51 10° ENE
Cosmos 2142 Rocket 4.3 09:19:12 10° N 09:25:28 83° W 09:31:47 10° S
Cosmos 2344 3.6 09:26:59 52° WNW 09:27:23 52° NW 09:35:09 10° NNE
USA 238 DEB 4.0 09:29:27 48° NW 09:29:27 48° NW 09:35:41 10° NNE
USA 238 3.9 09:29:32 48° NW 09:29:32 48° NW 09:35:47 10° NNE
Cosmos 2082 Rocket 4.0 09:26:30 10° SSE 09:31:16 29° ESE 09:36:02 10° NE
Meteor 1-16 Rocket 4.1 09:27:33 10° N 09:32:53 79° E 09:38:12 10° SSE
NOSS 3-2 (A) 4.2 09:34:08 37° NNW 09:34:08 37° NNW 09:39:20 10° NNE
CZ-4B R/B 3.5 09:36:20 10° SE 09:39:20 28° ENE 09:42:21 10° N
Cosmos 1656 3.7 09:36:09 26° NNW 09:39:32 78° ENE 09:45:13 10° SSE
ATLAS 3B R/B 3.3 09:36:19 10° S 09:42:37 51° ESE 09:48:59 10° NE
COSMOS 2406 3.0 09:48:10 41° SSW 09:50:13 82° WNW 09:55:56 10° NNE
Cosmos 2279 Rocket 3.9 09:44:23 10° NNW 09:50:29 61° W 09:56:33 10° S
Cosmos 292 Rocket 4.1 09:57:37 45° SW 09:57:37 45° SW 10:01:23 10° S
Cosmos 1697 Rocket 3.2 09:52:34 10° NNW 09:58:10 60° ENE 10:03:45 10° SE
ADEOS Rocket 2.7 09:54:13 10° S 09:59:36 57° W 10:05:04 10° NNW
BREEZE-M DEB (TANK) 2.3 10:04:38 48° SE 10:04:38 48° SE 10:06:19 10° SE
ERS-2 2.0 10:00:42 10° SSE 10:04:19 89° E 10:05:48 34° NNW
Cosmos 44 Rocket 3.3 10:04:23 32° NW 10:06:49 75° WSW 10:11:59 10° SSE
Cosmos 1908 3.5 10:08:35 49° SW 10:08:35 49° SW 10:11:42 10° S
CBERS 1 LM4 rocket 4.4 10:06:25 10° N 10:11:14 56° WNW 10:14:27 20° SW
Abrixas rocket 3.8 10:11:30 21° NNE 10:11:30 21° NNE 10:13:44 10° ENE
FENGYUN 3A 3.6 10:06:54 10° NNE 10:12:22 88° ESE 10:17:48 10° SSW
Cosmos 1461 3.1 10:10:10 22° SSW 10:13:02 84° ESE 10:17:44 10° NNE
TELKOM 3 3.5 10:12:57 78° SW 10:13:09 88° SE 10:16:52 10° ENE
Cosmos 2251 Rocket 3.9 10:11:52 10° S 10:17:10 66° ESE 10:22:29 10° NNE
SL-14 R/B 3.3 10:13:22 10° S 10:17:19 83° E 10:21:21 10° N
Cosmos 1689 Rocket 4.1 10:15:18 10° SE 10:17:55 29° ENE 10:20:32 10° N
ISS -3.7 10:19:03 54° NW 10:19:15 56° NNW 10:22:34 10° NE
Cosmos 1980 Rocket 3.1 10:14:39 10° NNW 10:20:04 48° ENE 10:25:27 10° SE
USA 290 2.7 10:19:11 10° S 10:22:20 61° ESE 10:25:33 10° NNE
DELTA 2 R/B (1) 4.3 10:24:50 26° WSW 10:27:11 38° SSW 10:32:19 10° SE
SAR-Lupe-1 4.2 10:23:44 10° SSE 10:27:17 75° ENE 10:30:52 10° N
Cosmos 1300 2.9 10:23:55 10° N 10:27:44 70° E 10:31:32 10° SSE
Cosmos 2360 4.2 10:26:02 10° NNW 10:31:46 87° ENE 10:37:26 10° SSE
Lacrosse 4 Rocket 2.7 10:33:26 20° NW 10:33:26 20° NW 10:36:15 10° N
ALOS 2.3 10:28:45 10° N 10:33:19 56° WNW 10:37:53 10° SSW
NOSS 3-2 (C) 4.4 10:31:39 22° WNW 10:33:48 27° NW 10:39:17 10° NNE
Cosmos 1726 Rocket 3.6 10:32:32 10° N 10:37:01 88° E 10:41:28 10° S
Cosmos 1484 Rocket 3.1 10:35:49 10° N 10:39:27 40° WNW 10:43:00 10° SW
Cosmos 1626 2.6 10:38:17 10° SW 10:41:42 36° WNW 10:45:08 10° N
CZ-2C R/B 3.6 10:40:13 10° NNW 10:43:49 20° WNW 10:44:45 19° W
Cosmos 2278 3.8 10:41:18 10° NNW 10:46:59 82° ENE 10:52:38 10° SSE
Aureole 3 3.9 10:43:19 10° N 10:47:29 77° E 10:52:48 10° S
CENTAUR R/B 3.7 10:44:29 18° WNW 10:47:43 26° NNW 10:53:33 10° NNE
H-2A R/B 4.3 10:44:55 10° NNE 10:48:32 39° E 10:52:09 10° SSE
Cosmos 2228 3.2 10:44:45 10° NNW 10:48:58 48° W 10:53:10 10° SSW
CZ-4B R/B 2.8 10:45:25 10° N 10:49:28 83° WNW 10:53:42 10° SSW
Cosmos 2322 Rocket 4.5 10:46:10 10° N 10:50:30 22° NE 10:54:48 10° ESE
Cosmos 1606 Rocket 3.8 10:47:47 10° NNW 10:52:05 48° W 10:56:23 10° SSW
ADEOS 4.0 10:47:26 10° N 10:52:14 38° WNW 10:57:01 10° SW
Cosmos 1092 Rocket 4.0 10:47:41 10° SSW 10:53:44 59° W 10:59:52 10° N
Cosmos 1833 Rocket 3.4 10:51:05 10° WSW 10:56:06 32° WNW 11:01:09 10° N
Cosmos 967 Rocket 4.4 10:50:13 10° NW 10:56:29 72° WSW 11:02:42 10° SSE
COSMO-SKYMED 1 2.5 10:52:14 10° S 10:56:32 69° WSW 11:00:53 10° NNW
Elektron 1 4.4 10:56:36 12° WSW 10:59:27 36° NW 11:02:08 10° NNE
Lacrosse 5 rocket 2.3 10:58:36 16° WNW 11:00:36 25° NNW 11:03:46 10° NNE
Meteor 1-24 Rocket 3.9 10:57:17 10° SSW 11:02:39 48° WNW 11:08:16 10° N
CZ-3 R/B 3.5 10:42:47 10° WSW 11:02:47 41° SSW 11:09:01 10° SE
Meteor 1-31 Rocket 3.6 11:00:03 10° N 11:03:31 29° WNW 11:06:56 10° SW
ATLAS CENTAUR R/B 3.8 11:01:03 10° S 11:04:18 24° ESE 11:07:27 10° ENE
Envisat 4.4 11:00:18 10° NNE 11:05:11 44° E 11:10:00 10° S
Meteor PRIRODA 3.7 11:02:41 10° N 11:06:17 55° WNW 11:09:52 10° SSW
Cosmos 407 Rocket 4.2 11:01:25 10° S 11:06:25 58° ESE 11:11:29 10° NNE
Meteor 2-10 Rocket 3.9 11:02:46 10° N 11:07:46 66° E 11:12:49 10° SSE
Cosmos 2369 4.1 11:04:44 10° NW 11:10:01 41° WSW 11:15:15 10° S
CZ-4B R/B 3.1 11:09:28 10° SW 11:11:37 16° W 11:13:46 10° NW
Cosmos 1140 Rocket 4.4 11:09:05 10° S 11:14:04 55° ESE 11:19:04 10° NNE
Cosmos 2082 Rocket 2.7 11:09:57 10° SW 11:15:09 39° WNW 11:20:25 10° N
Okean 1-7 Rocket 3.8 11:11:20 10° SSW 11:15:47 52° W 11:20:14 10° N
PSLV R/B 4.0 11:12:08 10° NNE 11:16:17 87° ESE 11:20:23 10° SSW
Cosmos 1455 3.3 11:13:13 10° N 11:17:00 50° E 11:20:45 10° SSE
Cosmos 2058 Rocket 3.4 11:18:18 10° NNW 11:22:37 46° W 11:26:52 10° SSW
Meteor 2-1 Rocket 4.5 11:18:28 10° N 11:24:10 81° E 11:29:57 10° SSE
SL-27 R/B 4.1 11:21:35 10° S 11:24:59 41° ESE 11:28:25 10° NNE
SL-16 R/B 3.3 11:20:17 10° NNW 11:25:46 48° ENE 11:31:13 10° SE
